{"data":{"norad_id":68590,"epoch":"2026-05-25T02:44:01.036896Z","epoch_age_seconds":62420,"freshness":"FRESH","line1":"1 68590U 26072T   26145.11390089  .00030611  00000+0  79650-3 0  9994","line2":"2 68590  51.8746 288.2868 0004485 282.8180  77.2306 15.38634482  7830","mean_motion":15.38634482,"eccentricity":0.0004485,"inclination_deg":51.8746,"raan_deg":288.2868,"arg_perigee_deg":282.818,"mean_anomaly_deg":77.2306,"bstar":0.0007965,"rev_number":783,"period_min":93.589479297787,"perigee_km":447.08385554524,"apogee_km":453.20882570178,"semimajor_km":6828.2833406235,"source":"CELESTRAK","updated_at":"2026-05-25T13:38:07.952120Z"}}